This is the latest recevied weather packets stored in our database for station/object KJ4AJP. If no packets are shown the sender has not sent any weather packets the latest 10 day(s).
| Time | Temp. | Humidity | Pressure | Rain* | Wind** | Luminosity | Snow |
|---|---|---|---|---|---|---|---|
| 1777733274 | 16.67° C | 48% | 1018 hPa | 0 mm | - | 395 W/m² | - |
| 1777732971 | 16.11° C | 50% | 1018 hPa | 0 mm | - | 580 W/m² | - |
| 1777732667 | 16.11° C | 50% | 1018.1 hPa | 0 mm | - | 239 W/m² | - |
| 1777732364 | 16.11° C | 52% | 1018.1 hPa | 0 mm | - | 325 W/m² | - |
| 1777732062 | 15.56° C | 48% | 1018.2 hPa | 0 mm | - | 415 W/m² | - |
| 1777731759 | 15° C | 53% | 1017.9 hPa | 0 mm | - | 254 W/m² | - |
| 1777731455 | 15° C | 51% | 1018 hPa | 0 mm | - | 140 W/m² | - |
| 1777731154 | 15.56° C | 53% | 1018.2 hPa | 0 mm | - | 130 W/m² | - |
| 1777730852 | 15° C | 53% | 1018.2 hPa | 0 mm | - | 349 W/m² | - |
| 1777730549 | 15° C | 56% | 1017.9 hPa | 0 mm | - | 198 W/m² | - |
| 1777730244 | 15° C | 58% | 1017.9 hPa | 0 mm | - | 196 W/m² | - |
| 1777729942 | 15° C | 59% | 1017.9 hPa | 0 mm | - | 166 W/m² | - |
| 1777729637 | 13.89° C | 62% | 1018.1 hPa | 0 mm | - | 124 W/m² | - |
| 1777729335 | 13.33° C | 62% | 1017.9 hPa | 0 mm | - | 241 W/m² | - |
| 1777729031 | 13.33° C | 63% | 1018.1 hPa | 0 mm | - | 65 W/m² | - |
| 1777728728 | 12.78° C | 64% | 1018 hPa | 0 mm | - | 79 W/m² | - |
| 1777728424 | 12.78° C | 69% | 1017.8 hPa | 0 mm | - | 60 W/m² | - |
| 1777728121 | 12.78° C | 66% | 1018 hPa | 0 mm | - | 58 W/m² | - |
| 1777727819 | 12.22° C | 67% | 1017.9 hPa | 0 mm | - | 59 W/m² | - |
| 1777727516 | 12.22° C | 67% | 1018 hPa | 0 mm | - | 65 W/m² | - |
| 1777727213 | 12.22° C | 73% | 1017.9 hPa | 0 mm | - | 61 W/m² | - |
| 1777726911 | 11.67° C | 74% | 1017.9 hPa | 0 mm | - | 77 W/m² | - |
| 1777726606 | 10.56° C | 82% | 1017.9 hPa | 0 mm | - | 111 W/m² | - |
| 1777726304 | 10° C | 94% | 1018 hPa | 0 mm | - | 59 W/m² | - |
| 1777726000 | 8.89° C | 95% | 1017.7 hPa | 0 mm | - | 46 W/m² | - |
* Rain latest hour (hover to see other rain measurements)
** Current wind speed in m/s (hover to see current wind gust speed)